This is the latest recevied weather packets stored in our database for station/object KD9JJA. If no packets are shown the sender has not sent any weather packets the latest 1 day(s).
| Time | Temp. | Humidity | Pressure | Rain* | Wind** | Luminosity | Snow |
|---|---|---|---|---|---|---|---|
| 1778082998 | 12.22° C | 78% | 1015.9 hPa | 0 mm | - | 283 W/m² | - |
| 1778080951 | 11.67° C | 83% | 1015.8 hPa | 0 mm | - | 196 W/m² | - |
| 1778080346 | 11.67° C | 85% | 1015.8 hPa | 0 mm | - | 167 W/m² | - |
| 1778079740 | 11.11° C | 87% | 1015.9 hPa | 0 mm | - | 247 W/m² | - |
| 1778077923 | 10.56° C | 92% | 1015.6 hPa | 0 mm | - | 312 W/m² | - |
| 1778076714 | 10.56° C | 96% | 1015.1 hPa | 0 mm | - | 105 W/m² | - |
| 1778074894 | 10° C | 98% | 1014.9 hPa | 0 mm | - | 186 W/m² | - |
| 1778072471 | 9.44° C | 99% | 1014.8 hPa | 0 mm | - | 78 W/m² | - |
| 1778072169 | 8.89° C | 99% | 1014.7 hPa | 0 mm | - | 67 W/m² | - |
| 1778071564 | 8.89° C | 99% | 1014.9 hPa | 0 mm | - | 48 W/m² | - |
| 1778070959 | 8.89° C | 99% | 1014.7 hPa | 0 mm | - | 35 W/m² | - |
| 1778070052 | 8.33° C | 99% | 1015.1 hPa | 0 mm | - | 29 W/m² | - |
| 1778069445 | 8.33° C | 99% | 1014.8 hPa | 0 mm | - | 29 W/m² | - |
| 1778067632 | 7.78° C | 99% | 1013.9 hPa | 0 mm | - | 14 W/m² | - |
| 1778066723 | 7.22° C | 99% | 1013.7 hPa | 0 mm | - | 12 W/m² | - |
| 1778065513 | 7.22° C | 99% | 1013.3 hPa | 0 mm | - | 3 W/m² | - |
| 1778065210 | 7.22° C | 99% | 1013.4 hPa | 0 mm | - | 1 W/m² | - |
| 1778063999 | 7.78° C | 99% | 1012.3 hPa | 0 mm | - | 0 W/m² | - |
| 1778063696 | 7.78° C | 99% | 1012.4 hPa | 0 mm | - | 0 W/m² | - |
| 1778063091 | 7.22° C | 99% | 1012.3 hPa | 0 mm | - | 0 W/m² | - |
| 1778062788 | 7.22° C | 99% | 1012.3 hPa | 0 mm | - | 0 W/m² | - |
| 1778061880 | 7.22° C | 99% | 1012.1 hPa | 0 mm | - | 0 W/m² | - |
| 1778061276 | 7.78° C | 99% | 1012.5 hPa | 0 mm | - | 0 W/m² | - |
| 1778059763 | 7.78° C | 99% | 1012.4 hPa | 0 mm | - | 0 W/m² | - |
| 1778059461 | 7.78° C | 99% | 1012.6 hPa | 0 mm | - | 0 W/m² | - |
* Rain latest hour (hover to see other rain measurements)
** Current wind speed in m/s (hover to see current wind gust speed)